TimeCDT,TemperatureF,Dew PointF,Humidity,Sea Level PressureIn,VisibilityMPH,Wind Direction,Wind SpeedMPH,Gust SpeedMPH,PrecipitationIn,Events,Conditions,WindDirDegrees,DateUTC
12:15 AM,66.2,60.8,83,30.09,10.0,Calm,Calm,-,N/A,,Clear,0,2013-09-17 05:15:00
12:35 AM,66.2,60.8,83,30.10,10.0,Calm,Calm,-,N/A,,Clear,0,2013-09-17 05:35:00
12:55 AM,64.4,60.8,88,30.10,10.0,North,3.5,-,N/A,,Clear,360,2013-09-17 05:55:00
1:15 AM,64.4,60.8,88,30.10,10.0,Calm,Calm,-,N/A,,Clear,0,2013-09-17 06:15:00
1:35 AM,64.4,60.8,88,30.10,10.0,North,4.6,-,N/A,,Clear,10,2013-09-17 06:35:00
1:55 AM,64.4,60.8,88,30.10,10.0,Calm,Calm,-,N/A,,Clear,0,2013-09-17 06:55:00
2:15 AM,62.6,57.2,82,30.11,10.0,Calm,Calm,-,N/A,,Clear,0,2013-09-17 07:15:00
2:35 AM,62.6,59.0,88,30.11,10.0,Calm,Calm,-,N/A,,Clear,0,2013-09-17 07:35:00
2:55 AM,64.4,60.8,88,30.10,10.0,Calm,Calm,-,N/A,,Clear,0,2013-09-17 07:55:00
3:15 AM,62.6,59.0,88,30.10,10.0,North,4.6,-,N/A,,Clear,360,2013-09-17 08:15:00
3:35 AM,62.6,60.8,94,30.10,10.0,North,3.5,-,N/A,,Clear,350,2013-09-17 08:35:00
3:55 AM,62.6,57.2,82,30.10,10.0,Calm,Calm,-,N/A,,Clear,0,2013-09-17 08:55:00
4:15 AM,62.6,59.0,88,30.10,10.0,North,3.5,-,N/A,,Clear,10,2013-09-17 09:15:00
4:35 AM,62.6,60.8,94,30.10,10.0,Calm,Calm,-,N/A,,Clear,0,2013-09-17 09:35:00
4:55 AM,62.6,57.2,82,30.09,7.0,North,-9999.0,-,N/A,,Clear,0,2013-09-17 09:55:00
5:15 AM,62.6,59.0,88,30.09,7.0,Calm,Calm,-,N/A,,Clear,0,2013-09-17 10:15:00
5:35 AM,62.6,59.0,88,30.09,6.0,Calm,Calm,-,N/A,,Clear,0,2013-09-17 10:35:00
5:50 AM,60.8,57.2,88,30.10,10.0,North,4.6,-,N/A,,Clear,350,2013-09-17 10:50:00
6:45 AM,60.8,59.0,94,30.11,10.0,Calm,Calm,-,N/A,,Partly Cloudy,0,2013-09-17 11:45:00
7:45 AM,64.4,57.2,77,30.13,10.0,NNE,4.6,-,N/A,,Clear,20,2013-09-17 12:45:00
8:45 AM,71.6,64.4,78,30.14,10.0,NE,4.6,-,N/A,,Clear,50,2013-09-17 13:45:00
9:45 AM,78.8,60.8,54,30.14,10.0,ENE,5.8,-,N/A,,Clear,60,2013-09-17 14:45:00
10:45 AM,82.4,60.8,48,30.14,10.0,ESE,5.8,-,N/A,,Clear,120,2013-09-17 15:45:00
11:45 AM,86.0,60.8,43,30.13,10.0,East,11.5,-,N/A,,Clear,100,2013-09-17 16:45:00
12:45 PM,87.8,59.0,38,30.12,10.0,Calm,Calm,-,N/A,,Clear,0,2013-09-17 17:45:00
1:45 PM,87.8,57.2,35,30.10,10.0,East,9.2,-,N/A,,Clear,100,2013-09-17 18:45:00
2:45 PM,91.4,60.8,36,30.07,10.0,Calm,Calm,-,N/A,,Clear,0,2013-09-17 19:45:00
3:50 PM,89.6,57.2,33,30.05,10.0,East,8.1,-,N/A,,Clear,90,2013-09-17 20:50:00
4:45 PM,89.6,55.4,31,30.03,10.0,East,6.9,-,N/A,,Clear,90,2013-09-17 21:45:00
5:45 PM,89.6,57.2,33,30.03,10.0,East,6.9,-,N/A,,Clear,90,2013-09-17 22:45:00
6:45 PM,84.2,57.2,40,30.03,10.0,East,5.8,-,N/A,,Clear,90,2013-09-17 23:45:00
7:45 PM,80.6,57.2,45,30.04,10.0,East,4.6,-,N/A,,Clear,90,2013-09-18 00:45:00
8:15 PM,78.8,59.0,51,30.05,10.0,ENE,3.5,-,N/A,,Clear,70,2013-09-18 01:15:00
8:35 PM,75.2,59.0,57,30.05,10.0,ENE,3.5,-,N/A,,Clear,70,2013-09-18 01:35:00
8:55 PM,75.2,60.8,61,30.06,10.0,ENE,4.6,-,N/A,,Clear,70,2013-09-18 01:55:00
9:15 PM,77.0,60.8,57,30.06,10.0,East,3.5,-,N/A,,Clear,80,2013-09-18 02:15:00
9:35 PM,77.0,60.8,57,30.07,10.0,East,4.6,-,N/A,,Clear,80,2013-09-18 02:35:00
9:55 PM,75.2,60.8,61,30.07,10.0,East,4.6,-,N/A,,Clear,80,2013-09-18 02:55:00
10:15 PM,75.2,60.8,61,30.07,10.0,East,5.8,-,N/A,,Clear,80,2013-09-18 03:15:00
10:35 PM,75.2,60.8,61,30.07,10.0,East,5.8,-,N/A,,Clear,80,2013-09-18 03:35:00
10:55 PM,75.2,60.8,61,30.07,10.0,East,8.1,-,N/A,,Clear,90,2013-09-18 03:55:00
11:15 PM,75.2,64.4,69,30.07,10.0,ESE,12.7,-,N/A,,Clear,110,2013-09-18 04:15:00
11:35 PM,75.2,66.2,73,30.08,10.0,SE,16.1,-,N/A,,Clear,130,2013-09-18 04:35:00
11:55 PM,75.2,66.2,73,30.08,10.0,SE,12.7,-,N/A,,Clear,130,2013-09-18 04:55:00